| time (UTC) | temp F | wind direction | speed MPH | gust MPH | rain 1hr in | rain 24hr in | rain mn in | humidity % | barometer mb |
| 20260504202000 | 78 | 214 | 10.0 | 24.0 | 0.00 | 0.00 | 0.00 | 41 | 1008.2 |
| 20260504201500 | 79 | 187 | 13.0 | 19.0 | 0.00 | 0.00 | 0.00 | 40 | 1008.2 |
| 20260504201000 | 80 | 242 | 18.0 | 22.0 | 0.00 | 0.00 | 0.00 | 40 | 1008.2 |
| 20260504200500 | 79 | 196 | 13.0 | 22.0 | 0.00 | 0.00 | 0.00 | 39 | 1008.4 |
| 20260504200000 | 79 | 183 | 13.0 | 22.0 | 0.00 | 0.00 | 0.00 | 41 | 1008.4 |
| 20260504195500 | 79 | 213 | 11.0 | 24.0 | 0.00 | 0.00 | 0.00 | 41 | 1008.3 |
| 20260504195000 | 79 | 207 | 17.0 | 24.0 | 0.00 | 0.00 | 0.00 | 39 | 1008.4 |
| 20260504194500 | 78 | 200 | 13.0 | 22.0 | 0.00 | 0.00 | 0.00 | 42 | 1008.4 |
| 20260504194000 | 78 | 212 | 19.0 | 21.0 | 0.00 | 0.00 | 0.00 | 40 | 1008.4 |
| 20260504193500 | 78 | 234 | 9.0 | 20.0 | 0.00 | 0.00 | 0.00 | 39 | 1008.8 |
| 20260504193000 | 78 | 232 | 11.0 | 22.0 | 0.00 | 0.00 | 0.00 | 42 | 1008.9 |
| 20260504192500 | 78 | 210 | 12.0 | 27.0 | 0.00 | 0.00 | 0.00 | 41 | 1008.8 |
| 20260504192000 | 79 | 224 | 22.0 | 27.0 | 0.00 | 0.00 | 0.00 | 39 | 1009.0 |
| 20260504191506 | 79 | 209 | 10.0 | 25.0 | 0.00 | 0.00 | 0.00 | 39 | 1009.0 |
| 20260504191000 | 79 | 196 | 20.0 | 22.0 | 0.00 | 0.00 | 0.00 | 40 | 1008.9 |
| 20260504190500 | 79 | 198 | 13.0 | 22.0 | 0.00 | 0.00 | 0.00 | 43 | 1009.1 |
| 20260504190006 | 78 | 218 | 8.0 | 28.0 | 0.00 | 0.00 | 0.00 | 41 | 1009.2 |
| 20260504185506 | 78 | 241 | 15.0 | 28.0 | 0.00 | 0.00 | 0.00 | 39 | 1009.0 |
| 20260504185000 | 78 | 209 | 10.0 | 26.0 | 0.00 | 0.00 | 0.00 | 42 | 1009.3 |
| 20260504184500 | 79 | 199 | 10.0 | 24.0 | 0.00 | 0.00 | 0.00 | 40 | 1009.4 |
| 20260504184000 | 79 | 204 | 19.0 | 24.0 | 0.00 | 0.00 | 0.00 | 40 | 1009.3 |
| 20260504183500 | 78 | 207 | 12.0 | 23.0 | 0.00 | 0.00 | 0.00 | 44 | 1009.5 |
| 20260504183000 | 78 | 199 | 11.0 | 36.0 | 0.00 | 0.00 | 0.00 | 43 | 1009.6 |
| 20260504182500 | 78 | 199 | 17.0 | 36.0 | 0.00 | 0.00 | 0.00 | 41 | 1009.5 |
| 20260504182000 | 78 | 180 | 24.0 | 28.0 | 0.00 | 0.00 | 0.00 | 41 | 1009.2 |
| 20260504181500 | 77 | 210 | 10.0 | 28.0 | 0.00 | 0.00 | 0.00 | 44 | 1009.7 |
| 20260504181000 | 77 | 189 | 15.0 | 25.0 | 0.00 | 0.00 | 0.00 | 43 | 1009.7 |
| 20260504180500 | 78 | 211 | 20.0 | 26.0 | 0.00 | 0.00 | 0.00 | 42 | 1009.6 |
| 20260504180000 | 77 | 227 | 15.0 | 26.0 | 0.00 | 0.00 | 0.00 | 42 | 1009.8 |
| 20260504175500 | 77 | 215 | 15.0 | 24.0 | 0.00 | 0.00 | 0.00 | 44 | 1009.9 |
| 20260504175000 | 77 | 216 | 17.0 | 21.0 | 0.00 | 0.00 | 0.00 | 44 | 1009.7 |
| 20260504174500 | 77 | 231 | 14.0 | 25.0 | 0.00 | 0.00 | 0.00 | 45 | 1010.1 |
| 20260504174000 | 76 | 207 | 16.0 | 25.0 | 0.00 | 0.00 | 0.00 | 44 | 1010.0 |
| 20260504173500 | 77 | 224 | 15.0 | 24.0 | 0.00 | 0.00 | 0.00 | 43 | 1010.3 |
| 20260504173000 | 77 | 202 | 18.0 | 24.0 | 0.00 | 0.00 | 0.00 | 42 | 1010.1 |
| 20260504172500 | 77 | 213 | 20.0 | 24.0 | 0.00 | 0.00 | 0.00 | 41 | 1010.0 |
| 20260504172000 | 76 | 201 | 17.0 | 24.0 | 0.00 | 0.00 | 0.00 | 46 | 1010.2 |
| 20260504171500 | 77 | 241 | 10.0 | 23.0 | 0.00 | 0.00 | 0.00 | 47 | 1010.4 |
| 20260504171001 | 76 | 239 | 16.0 | 24.0 | 0.00 | 0.00 | 0.00 | 48 | 1010.3 |
| 20260504170500 | 76 | 237 | 16.0 | 24.0 | 0.00 | 0.00 | 0.00 | 45 | 1010.4 |
| 20260504151000 | 71 | 211 | 9.0 | 13.0 | 0.00 | 0.00 | 0.00 | 61 | 1011.0 |
| 20260504150500 | 70 | 216 | 13.0 | 15.0 | 0.00 | 0.00 | 0.00 | 61 | 1010.9 |
| 20260504141000 | 67 | 187 | 9.0 | 12.0 | 0.00 | 0.00 | 0.00 | 66 | 1011.2 |
| 20260504140500 | 67 | 217 | 8.0 | 13.0 | 0.00 | 0.00 | 0.00 | 65 | 1011.2 |
| 20260504130500 | 63 | 228 | 6.0 | 11.0 | 0.00 | 0.00 | 0.00 | 71 | 1010.8 |
| 20260504110500 | 59 | 214 | 7.0 | 10.0 | 0.00 | 0.00 | 0.00 | 76 | 1009.7 |
| 20260504100500 | 61 | 212 | 9.0 | 9.0 | 0.00 | 0.00 | 0.00 | 72 | 1009.8 |
| 20260504082000 | 61 | 195 | 6.0 | 9.0 | 0.00 | 0.00 | 0.00 | 72 | 1010.1 |
| 20260504081500 | 62 | 213 | 6.0 | 9.0 | 0.00 | 0.00 | 0.00 | 72 | 1010.2 |
| 20260504081000 | 62 | 201 | 7.0 | 8.0 | 0.00 | 0.00 | 0.00 | 72 | 1010.2 |
| 20260504080500 | 62 | 223 | 7.0 | 7.0 | 0.00 | 0.00 | 0.00 | 72 | 1010.2 |
| 20260504050500 | 64 | 190 | 5.0 | 7.0 | 0.00 | 0.00 | 0.00 | 67 | 1011.2 |
| 20260504050000 | 64 | 198 | 5.0 | 7.0 | 0.00 | 0.00 | 0.00 | 67 | 1011.2 |
| 20260504045500 | 64 | 195 | 6.0 | 8.0 | 0.00 | 0.00 | 0.00 | 67 | 1011.2 |
| 20260504045000 | 65 | 201 | 5.0 | 9.0 | 0.00 | 0.00 | 0.00 | 66 | 1011.2 |
| 20260504044500 | 65 | 183 | 6.0 | 9.0 | 0.00 | 0.00 | 0.00 | 65 | 1011.2 |
| 20260504044000 | 65 | 198 | 4.0 | 10.0 | 0.00 | 0.00 | 0.00 | 65 | 1011.3 |
| 20260504043500 | 65 | 186 | 6.0 | 10.0 | 0.00 | 0.00 | 0.00 | 65 | 1011.4 |
| 20260504043000 | 65 | 197 | 6.0 | 9.0 | 0.00 | 0.00 | 0.00 | 65 | 1011.4 |
| 20260504042500 | 65 | 195 | 9.0 | 9.0 | 0.00 | 0.00 | 0.00 | 65 | 1011.4 |
| 20260504042000 | 65 | 194 | 5.0 | 9.0 | 0.00 | 0.00 | 0.00 | 65 | 1011.5 |
| 20260504041500 | 65 | 194 | 7.0 | 9.0 | 0.00 | 0.00 | 0.00 | 65 | 1011.5 |
| 20260504041000 | 65 | 193 | 6.0 | 9.0 | 0.00 | 0.00 | 0.00 | 65 | 1011.5 |
| 20260504040500 | 65 | 196 | 5.0 | 8.0 | 0.00 | 0.00 | 0.00 | 65 | 1011.6 |
| 20260504040000 | 65 | 193 | 5.0 | 8.0 | 0.00 | 0.00 | 0.00 | 66 | 1011.6 |
| 20260504035500 | 65 | 194 | 6.0 | 8.0 | 0.00 | 0.00 | 0.00 | 65 | 1011.6 |
| 20260504035000 | 65 | 200 | 4.0 | 6.0 | 0.00 | 0.00 | 0.00 | 66 | 1011.7 |
| 20260504034500 | 65 | 190 | 5.0 | 6.0 | 0.00 | 0.00 | 0.00 | 65 | 1011.7 |
| 20260504034000 | 65 | 170 | 4.0 | 7.0 | 0.00 | 0.00 | 0.00 | 65 | 1011.6 |
| 20260504033500 | 65 | 193 | 5.0 | 7.0 | 0.00 | 0.00 | 0.00 | 65 | 1011.6 |
| 20260504033000 | 66 | 183 | 5.0 | 6.0 | 0.00 | 0.00 | 0.00 | 65 | 1011.7 |
| 20260504032500 | 66 | 183 | 4.0 | 6.0 | 0.00 | 0.00 | 0.00 | 65 | 1011.7 |
| 20260504032000 | 66 | 182 | 4.0 | 8.0 | 0.00 | 0.00 | 0.00 | 64 | 1011.7 |
| 20260504031500 | 66 | 180 | 6.0 | 8.0 | 0.00 | 0.00 | 0.00 | 64 | 1011.7 |
| 20260504031000 | 67 | 187 | 6.0 | 8.0 | 0.00 | 0.00 | 0.00 | 63 | 1011.7 |
| 20260504030500 | 67 | 192 | 4.0 | 8.0 | 0.00 | 0.00 | 0.00 | 62 | 1011.6 |
| 20260504030000 | 67 | 189 | 6.0 | 7.0 | 0.00 | 0.00 | 0.00 | 61 | 1011.7 |
| 20260504025500 | 67 | 197 | 5.0 | 7.0 | 0.00 | 0.00 | 0.00 | 62 | 1011.6 |
| 20260504025000 | 67 | 182 | 5.0 | 6.0 | 0.00 | 0.00 | 0.00 | 63 | 1011.6 |
| 20260504024500 | 67 | 182 | 4.0 | 7.0 | 0.00 | 0.00 | 0.00 | 62 | 1011.6 |
| 20260504024000 | 67 | 190 | 5.0 | 7.0 | 0.00 | 0.00 | 0.00 | 61 | 1011.6 |
| 20260504023500 | 67 | 175 | 6.0 | 7.0 | 0.00 | 0.00 | 0.00 | 62 | 1011.5 |
| 20260504023000 | 66 | 183 | 5.0 | 5.0 | 0.00 | 0.00 | 0.00 | 65 | 1011.6 |
| 20260504022500 | 66 | 199 | 3.0 | 6.0 | 0.00 | 0.00 | 0.00 | 67 | 1011.5 |
| 20260504022000 | 67 | 188 | 4.0 | 6.0 | 0.00 | 0.00 | 0.00 | 66 | 1011.5 |
| 20260504021500 | 67 | 188 | 4.0 | 5.0 | 0.00 | 0.00 | 0.00 | 65 | 1011.5 |
| 20260504021000 | 67 | 181 | 4.0 | 5.0 | 0.00 | 0.00 | 0.00 | 65 | 1011.5 |
| 20260504020500 | 67 | 188 | 5.0 | 5.0 | 0.00 | 0.00 | 0.00 | 66 | 1011.5 |
| 20260504020000 | 67 | 186 | 4.0 | 5.0 | 0.00 | 0.00 | 0.00 | 67 | 1011.4 |
| 20260504015500 | 67 | 196 | 4.0 | 5.0 | 0.00 | 0.00 | 0.00 | 68 | 1011.5 |
| 20260504015000 | 67 | 197 | 4.0 | 5.0 | 0.00 | 0.00 | 0.00 | 65 | 1011.4 |
| 20260504014500 | 67 | 193 | 4.0 | 5.0 | 0.00 | 0.00 | 0.00 | 66 | 1011.4 |
| 20260504014000 | 67 | 196 | 5.0 | 5.0 | 0.00 | 0.00 | 0.00 | 66 | 1011.4 |
| 20260504013500 | 68 | 194 | 4.0 | 4.0 | 0.00 | 0.00 | 0.00 | 64 | 1011.4 |
| 20260504013000 | 69 | 198 | 4.0 | 4.0 | 0.00 | 0.00 | 0.00 | 60 | 1011.4 |
| 20260504012500 | 69 | 193 | 4.0 | 4.0 | 0.00 | 0.00 | 0.00 | 60 | 1011.4 |
| 20260504012000 | 69 | 195 | 3.0 | 4.0 | 0.00 | 0.00 | 0.00 | 61 | 1011.4 |
| 20260504011500 | 69 | 189 | 3.0 | 5.0 | 0.00 | 0.00 | 0.00 | 60 | 1011.4 |
| 20260504011000 | 70 | 183 | 4.0 | 5.0 | 0.00 | 0.00 | 0.00 | 61 | 1011.4 |
| 20260504010500 | 72 | 189 | 4.0 | 4.0 | 0.00 | 0.00 | 0.00 | 51 | 1011.5 |
| 20260504010000 | 72 | 199 | 3.0 | 4.0 | 0.00 | 0.00 | 0.00 | 47 | 1011.4 |
| 20260504005500 | 73 | 208 | 4.0 | 4.0 | 0.00 | 0.00 | 0.00 | 48 | 1011.5 |
| 20260504005000 | 73 | 203 | 3.0 | 4.0 | 0.00 | 0.00 | 0.00 | 47 | 1011.5 |
| 20260504004500 | 73 | 202 | 4.0 | 4.0 | 0.00 | 0.00 | 0.00 | 49 | 1011.5 |
| 20260504004000 | 73 | 198 | 3.0 | 5.0 | 0.00 | 0.00 | 0.00 | 51 | 1011.6 |
| 20260504003500 | 74 | 202 | 4.0 | 6.0 | 0.00 | 0.00 | 0.00 | 48 | 1011.7 |
| 20260504003000 | 75 | 207 | 4.0 | 6.0 | 0.00 | 0.00 | 0.00 | 47 | 1011.8 |
| 20260504002500 | 75 | 215 | 5.0 | 6.0 | 0.00 | 0.00 | 0.00 | 44 | 1011.8 |
| 20260504002000 | 76 | 209 | 6.0 | 6.0 | 0.00 | 0.00 | 0.00 | 44 | 1011.8 |
| 20260504001500 | 76 | 235 | 4.0 | 7.0 | 0.00 | 0.00 | 0.00 | 44 | 1011.8 |
| 20260504001000 | 77 | 217 | 6.0 | 8.0 | 0.00 | 0.00 | 0.00 | 41 | 1011.9 |
| 20260504000500 | 77 | 205 | 3.0 | 8.0 | 0.00 | 0.00 | 0.00 | 42 | 1011.9 |
| 20260504000000 | 77 | 204 | 7.0 | 11.0 | 0.00 | 0.00 | 0.00 | 41 | 1011.9 |
| 20260503235500 | 77 | 209 | 5.0 | 11.0 | 0.00 | 0.00 | 0.00 | 41 | 1011.8 |
| 20260503235000 | 77 | 233 | 6.0 | 11.0 | 0.00 | 0.00 | 0.00 | 39 | 1011.8 |
| 20260503234500 | 77 | 213 | 9.0 | 11.0 | 0.00 | 0.00 | 0.00 | 38 | 1011.7 |
| 20260503234000 | 77 | 218 | 6.0 | 11.0 | 0.00 | 0.00 | 0.00 | 40 | 1011.8 |
| 20260503233500 | 78 | 195 | 6.0 | 11.0 | 0.00 | 0.00 | 0.00 | 41 | 1011.8 |
| 20260503233000 | 78 | 209 | 7.0 | 10.0 | 0.00 | 0.00 | 0.00 | 40 | 1011.8 |
| 20260503232501 | 78 | 233 | 6.0 | 10.0 | 0.00 | 0.00 | 0.00 | 41 | 1011.9 |
| 20260503232000 | 78 | 230 | 7.0 | 10.0 | 0.00 | 0.00 | 0.00 | 38 | 1012.0 |
| 20260503231500 | 78 | 229 | 7.0 | 12.0 | 0.00 | 0.00 | 0.00 | 37 | 1012.1 |
| 20260503231000 | 78 | 238 | 7.0 | 13.0 | 0.00 | 0.00 | 0.00 | 36 | 1012.1 |
| 20260503230500 | 78 | 228 | 11.0 | 13.0 | 0.00 | 0.00 | 0.00 | 36 | 1012.2 |
| 20260503230000 | 78 | 242 | 7.0 | 12.0 | 0.00 | 0.00 | 0.00 | 37 | 1012.2 |
| 20260503225500 | 78 | 219 | 7.0 | 9.0 | 0.00 | 0.00 | 0.00 | 39 | 1012.3 |
| 20260503225000 | 78 | 258 | 2.0 | 9.0 | 0.00 | 0.00 | 0.00 | 41 | 1012.4 |
| 20260503224500 | 78 | 239 | 8.0 | 13.0 | 0.00 | 0.00 | 0.00 | 38 | 1012.3 |
| 20260503224000 | 78 | 231 | 4.0 | 13.0 | 0.00 | 0.00 | 0.00 | 40 | 1012.5 |
| 20260503223500 | 78 | 214 | 9.0 | 12.0 | 0.00 | 0.00 | 0.00 | 38 | 1012.4 |
| 20260503223000 | 78 | 222 | 8.0 | 18.0 | 0.00 | 0.00 | 0.00 | 35 | 1012.5 |
| 20260503222500 | 79 | 237 | 6.0 | 18.0 | 0.00 | 0.00 | 0.00 | 40 | 1012.5 |
| 20260503222000 | 78 | 215 | 6.0 | 12.0 | 0.00 | 0.00 | 0.00 | 37 | 1012.5 |
| 20260503221500 | 78 | 245 | 8.0 | 11.0 | 0.00 | 0.00 | 0.00 | 38 | 1012.6 |
| 20260503221000 | 78 | 232 | 5.0 | 11.0 | 0.00 | 0.00 | 0.00 | 35 | 1012.6 |
| 20260503220500 | 78 | 243 | 7.0 | 15.0 | 0.00 | 0.00 | 0.00 | 34 | 1012.7 |
| 20260503220000 | 78 | 234 | 7.0 | 15.0 | 0.00 | 0.00 | 0.00 | 37 | 1012.7 |
| 20260503215500 | 78 | 239 | 10.0 | 17.0 | 0.00 | 0.00 | 0.00 | 39 | 1012.7 |
| 20260503215000 | 78 | 239 | 11.0 | 17.0 | 0.00 | 0.00 | 0.00 | 37 | 1012.7 |
| 20260503214500 | 78 | 216 | 9.0 | 16.0 | 0.00 | 0.00 | 0.00 | 37 | 1012.8 |
| 20260503214000 | 78 | 214 | 12.0 | 17.0 | 0.00 | 0.00 | 0.00 | 36 | 1012.8 |
| 20260503213500 | 78 | 220 | 9.0 | 17.0 | 0.00 | 0.00 | 0.00 | 36 | 1013.0 |
| 20260503213001 | 78 | 210 | 8.0 | 16.0 | 0.00 | 0.00 | 0.00 | 41 | 1013.1 |
| 20260503212500 | 77 | 237 | 12.0 | 16.0 | 0.00 | 0.00 | 0.00 | 38 | 1013.1 |
| 20260503212000 | 77 | 232 | 8.0 | 15.0 | 0.00 | 0.00 | 0.00 | 36 | 1013.2 |
| 20260503211500 | 77 | 226 | 7.0 | 16.0 | 0.00 | 0.00 | 0.00 | 39 | 1013.3 |
| 20260503211000 | 78 | 228 | 8.0 | 17.0 | 0.00 | 0.00 | 0.00 | 38 | 1013.4 |
| 20260503210500 | 77 | 225 | 14.0 | 17.0 | 0.00 | 0.00 | 0.00 | 38 | 1013.4 |
| 20260503210000 | 77 | 220 | 6.0 | 16.0 | 0.00 | 0.00 | 0.00 | 39 | 1013.6 |
| 20260503205500 | 77 | 244 | 13.0 | 16.0 | 0.00 | 0.00 | 0.00 | 39 | 1013.7 |
| 20260503205000 | 77 | 233 | 6.0 | 17.0 | 0.00 | 0.00 | 0.00 | 38 | 1013.8 |
| 20260503204500 | 77 | 216 | 9.0 | 17.0 | 0.00 | 0.00 | 0.00 | 42 | 1013.9 |
| 20260503204000 | 77 | 206 | 9.0 | 15.0 | 0.00 | 0.00 | 0.00 | 39 | 1014.0 |
| 20260503203500 | 77 | 220 | 8.0 | 19.0 | 0.00 | 0.00 | 0.00 | 38 | 1014.0 |
| 20260503203000 | 77 | 227 | 6.0 | 19.0 | 0.00 | 0.00 | 0.00 | 38 | 1014.1 |
| 20260503202500 | 77 | 213 | 13.0 | 18.0 | 0.00 | 0.00 | 0.00 | 42 | 1014.1 |